Zurück zum Katalog

COSMOS 2491 DEB

AktivPO
NORAD 57563·DEBRIS·🇷🇺 Russia

Gestartet Dec 25, 2013 von Plesetsk Cosmodrome

Loading…

Nächste Überflüge (nächste 24 Stunden)

TLE

AktuellSource: Space-Track

Epoche: Sep 13, 2026, 05:42 UTC

1 57563U 13076BA  26256.23807481  .00001691  00000-0  92851-2 0  9991
2 57563  82.4719  80.2688 0049373 199.5154 160.4048 12.62840468153734

Verfolge COSMOS 2491 DEB in Echtzeit mit AllMySat

Download on the App Store